Location: West Cummington
(42.4920°N, 72.9680°W)
Time: 17:08:38
(UTC-04:00)

Daily predictions for brighter satellites

Satellite Brightness Start Highest point End
(mag) Time Altitude Azimuth Time Altitude Azimuth Time Altitude Azimuth
Cosmos 1833 4.3 18:17:15 10° SSW 18:22:57 88° ESE 18:28:37 10° NNE
Cosmos 2219 4.0 18:18:34 10° SSE 18:23:31 31° ESE 18:28:28 10° NE
Cosmos 44 Rocket 3.6 18:22:11 10° S 18:26:36 42° ESE 18:31:03 10° NE
SL-8 Rocket 4.5 18:22:28 10° SSW 18:28:38 69° W 18:34:53 10° N
Cosmos 158 Rocket 4.2 18:25:32 10° S 18:30:22 47° ESE 18:35:21 10° NNE
Abrixas 2.5 18:29:06 10° SW 18:31:04 34° SSE 18:33:00 11° ENE
Cosmos 1048 Rocket 4.3 18:30:52 10° S 18:35:40 43° ESE 18:40:30 10° NNE
APEX 2.9 18:32:52 10° S 18:35:50 41° ESE 18:38:31 10° NE
BREEZE-M DEB (TANK) 2.7 18:33:57 10° WNW 18:36:07 32° SW 18:37:58 10° SSE
ERS-2 2.2 18:34:21 10° SSE 18:38:02 86° WSW 18:41:46 10° NNW
SL-24 R/B - RUBIN 2 4.4 18:34:47 10° NW 18:39:32 57° WSW 18:43:50 10° SSE
YAOGAN 1 2.5 18:35:57 10° SSE 18:40:16 79° ENE 18:44:37 10° N
Cosmos 1420 Rocket 4.0 18:36:03 10° NNW 18:41:23 74° ENE 18:46:39 10° SSE
Cosmos 1633 Rocket 4.5 18:39:22 10° NNE 18:42:24 18° ENE 18:45:26 10° ESE
Cosmos 1726 3.0 18:41:56 10° SSE 18:45:05 27° E 18:48:14 10° NNE
Cosmos 2322 3.9 18:39:22 10° NNW 18:45:07 78° WSW 18:50:48 10° SSE
GRACE-2 3.8 18:42:41 10° SSE 18:45:10 48° E 18:47:40 10° N
CZ-4 R/B 2.0 18:41:07 10° S 18:45:16 63° W 18:49:23 10° NNW
EO 1 Del DPAF 3.2 18:43:52 10° NNE 18:47:43 69° ESE 18:51:32 10° S
CZ-2C R/B 4.0 18:44:09 10° N 18:48:38 68° WNW 18:53:03 10° SSW
GRACE-1 3.5 18:48:16 10° S 18:50:48 66° E 18:53:23 10° N
NOAA 12 4.3 18:46:03 10° SE 18:51:08 48° ENE 18:56:14 10° N
Landsat 4 4.4 18:47:53 10° N 18:51:33 55° WNW 18:55:11 10° SSW
Cosmos 2219 Rocket 2.5 18:46:15 10° NNW 18:51:35 43° ENE 18:56:55 10° SE
Cosmos 1821 Rocket 4.2 18:47:01 10° SSE 18:52:50 46° E 18:58:47 10° NNE
METEOR-M 4.1 18:51:18 10° SSE 18:56:39 81° ENE 19:02:01 10° NNW
BREEZE-M DEB (TANK) 2.4 18:55:31 10° W 18:57:42 41° NNW 18:58:56 18° NE
Cosmos 2221 2.4 18:57:00 10° S 19:01:19 77° E 19:05:41 10° N
Meteor 1-28 Rocket 4.3 18:58:00 10° N 19:01:39 46° WNW 19:05:15 10° SSW
Cosmos 2084 3.7 18:58:25 10° NNW 19:01:59 37° NE 19:04:15 19° ESE
ALOS 2.3 18:57:49 10° SSE 19:02:22 54° ENE 19:06:56 10° N
Thor Agena Rocket 4.1 18:58:08 10° NE 19:02:40 32° E 19:07:09 10° SSE
Cosmos 1315 Rocket 3.4 19:00:28 10° NNW 19:04:32 63° W 19:08:36 10° S
Cosmos 921 Rocket 4.0 19:01:14 10° NNW 19:05:33 51° WSW 19:09:46 10° S
SKYMED 2 3.6 19:02:12 10° NNE 19:06:34 89° WNW 19:10:55 10° SSW
GP-B 4.3 19:05:35 10° N 19:09:51 46° W 19:14:04 10° SSW
Cosmos 2333 4.4 19:15:20 10° NNW 19:21:04 75° WSW 19:26:49 10° SSE
Cosmos 2123 Rocket 4.1 19:16:52 10° N 19:22:59 54° ENE 19:29:07 10° SSE
BREEZE-M R/B 3.2 19:20:55 10° SSW 19:23:15 30° SE 19:23:15 30° SE
SJ-6B 3.5 19:25:54 32° ENE 19:25:54 32° ENE 19:28:52 10° N
In-Cosmos 22 Rocket 4.4 19:21:22 10° N 19:27:00 52° ENE 19:32:38 10° SSE
Cosmos 1605 Rocket 4.2 19:21:39 10° SSE 19:27:22 43° E 19:33:04 10° NNE
Lacrosse 5 rocket 3.8 19:26:01 10° NNW 19:27:29 11° N 19:28:56 10° NNE
Cosmos 2237 Rocket 2.5 19:23:23 10° NNW 19:28:53 46° ENE 19:31:45 26° ESE
DMSP B5D1-3 4.5 19:25:21 10° NNE 19:30:31 89° WNW 19:35:40 10° SSW
Cosmos 1269 Rocket 4.3 19:25:31 10° SSW 19:30:46 71° WNW 19:36:05 10° NNE
Cosmos 44 4.0 19:26:53 10° SW 19:31:04 46° NW 19:35:16 10° NNE
H-2A R/B 2.8 19:32:05 27° SE 19:34:00 56° ENE 19:37:52 10° N
Aureole 2 Rocket 3.1 19:30:42 10° NNW 19:34:39 69° WSW 19:38:41 10° S
Cosmos 2227 Rocket 2.4 19:31:10 10° S 19:36:29 44° ESE 19:39:16 26° NE
SL-8 R/B 4.5 19:32:08 10° W 19:36:44 43° N 19:38:45 28° NE
NOSS 0 Rocket 3.8 19:33:26 10° NNW 19:39:38 78° ENE 19:44:52 15° SSE
SL-16 R/B 3.2 19:36:40 10° N 19:41:21 27° NE 19:41:21 27° NE
SWAS 4.4 19:37:55 10° S 19:42:05 55° ESE 19:42:35 52° E
Iridium 4 Rocket 4.3 19:37:23 10° SSW 19:42:58 62° W 19:48:50 10° N
Gbstr 26 Del rocket 4.0 19:38:06 10° WNW 19:43:08 63° SW 19:47:06 22° SE
Abrixas rocket 3.2 19:40:44 10° NW 19:43:32 37° N 19:43:32 37° N
Cosmos 1300 2.9 19:44:46 10° SSW 19:48:34 72° W 19:52:24 10° N
Cosmos 494 Rocket 3.8 19:44:10 10° S 19:49:14 69° ESE 19:52:56 19° NNE
BREEZE M DEB (TANK) 4.3 19:31:43 10° WNW 19:50:14 70° NNE 19:52:21 41° E
Sich 1 3.2 19:45:54 10° NNW 19:50:17 72° W 19:54:40 10° S
ATLAS 5 CENTAUR R/B 4.4 19:52:01 10° N 19:53:21 11° NNE 19:54:06 11° NNE
Cosmos 1980 3.5 19:47:42 10° NNW 19:53:23 77° ENE 19:55:59 33° SE
Resurs 01 Rocket 3.3 19:57:31 21° NNE 19:57:31 21° NNE 19:59:13 10° N
CZ-4C R/B 2.9 19:52:28 10° WSW 19:57:35 50° NW 20:02:54 13° NNE
Cosmos 1110 Rocket 4.0 19:52:15 10° NNW 19:57:35 80° WSW 20:01:18 20° SSE
FREGAT/IRIS 4.4 20:00:59 28° NW 20:00:59 28° NW 20:02:39 10° NNW
Meteor 2-3 Rocket 3.8 19:54:35 10° N 20:00:14 53° ENE 20:00:30 52° E
Cosmos 1447 Rocket 4.5 19:54:27 10° N 20:00:41 58° ENE 20:02:38 41° SE
COSMOS 2428 4.4 19:57:54 10° NW 20:02:53 32° WSW 20:07:51 10° SSW
USA 32 3.9 19:58:56 10° N 20:04:11 67° E 20:04:45 62° ESE
Cosmos 2333 Rocket 2.7 20:00:21 10° NNW 20:06:01 60° WSW 20:11:07 13° S
Cosmos 2219 4.4 20:02:06 10° SW 20:07:30 41° WNW 20:12:55 10° NNE
Cosmos 2297 Rocket 2.0 20:08:01 10° SSW 20:13:39 74° ESE 20:14:05 70° ENE
Cosmos 1328 Rocket 4.0 20:15:58 10° SSW 20:25:10 - N 20:19:44 56° WSW
Cosmos 1633 Rocket 4.3 20:16:14 10° NNW 20:20:24 41° W 20:24:33 10° SSW
Envisat 4.0 20:24:49 36° N 20:24:49 36° N 20:27:53 10° N
Cosmos 2082 3.6 20:18:23 10° SSW 20:24:07 87° ESE 20:24:19 83° NE
Cosmos 2251 Rocket 3.5 20:19:32 10° SSW 20:24:50 80° WNW 20:25:27 69° N
Cosmos 2219 Rocket 4.0 20:30:37 10° NW 20:35:18 28° WSW 20:39:59 10° SSW
USA 267 3.9 20:48:34 42° SSW 20:48:34 42° SSW 20:52:51 10° SW
BREEZE-M DEB (TANK) 4.1 20:54:36 10° WNW 21:04:20 49° WSW 21:04:20 49° WSW
Cosmos 2237 Rocket 4.0 21:08:00 10° NW 21:12:39 26° WSW 21:13:39 25° WSW
Cosmos 2227 Rocket 3.9 21:15:48 10° WSW 21:20:41 29° NW 21:21:12 29° NW
USA 234 4.3 21:23:45 37° NNW 21:23:45 37° NNW 21:27:55 10° NW
SL-16 R/B 3.9 21:20:21 10° NW 21:23:15 29° NW 21:23:15 29° NW
